IDPK1: Verdigris River, Independence

Data processed at Fri May 24 2019 23:50


All information presented herein is the property of the government of the United States of America and may be revised or deleted at any time without prior notice.
Dissemination of this information without the expressed written consent of the Public Affairs Office, Tulsa District U.S. Army Corps of Engineers is strictly prohibited.
These data are gathered electronically and, as presented, have not undergone any form of quality control. These data are not guaranteed to be valid or correct.
Go to home page.
Go to station list.
Go to home page.

Upstream stations:

Downstream station:
Previous Day
Next Day
Current Day
    
SHEF ID:       IDPK1     VERDIGRIS R AT INDEPENDENCE, KS
STATION TYPE:  
Regulating: Stage =    30.00, Flow =    22615

               PRECIP     STAGE  RIV-FLOW  BAT-LOAD
                   in        ft       cfs      volt
              Ccp-Rev   Ccp-Rev   Ccp-Rev   Ccp-Rev
(US/Central)
05/24 00:00      0.00     37.84     31372     12.77
05/24 01:00      0.00     37.72     30897     12.77
05/24 02:00      0.00     37.56     30273     12.77
05/24 03:00      0.00     37.40     29658     12.65
05/24 04:00      0.00     37.27     29534     12.77
05/24 05:00      0.00     37.08     29353     12.71
05/24 06:00      0.00     36.83     29116     12.71
05/24 07:00      0.00     36.73     29021     12.71
05/24 08:00      0.00     36.63     28925     12.89
05/24 09:00      0.00     36.41     28716     12.83
05/24 10:00      0.00     36.29     28602     13.00
05/24 11:00      0.00     36.16     28478     12.77
05/24 12:00      0.07     35.98     28307     13.30
05/24 13:00      0.04     35.83     28164     13.30
05/24 14:00      0.14     35.70     28041     13.30
05/24 15:00      0.00     35.53     27879     13.65
05/24 16:00      0.00     35.38     27736     13.53
05/24 17:00      0.00     35.24     27603     13.42
05/24 18:00      0.00     34.97     27346     13.30
05/24 19:00      0.00     34.86     27242     13.00
05/24 20:00      0.00     34.67     27061     12.89
05/24 21:00      0.00     34.52     26918     12.89
05/24 22:00      0.00     34.40     26804     12.83
05/24 23:00      0.38     34.37     26775     12.83